DW3263 Weather Reports


time (UTC)temp
C
wind
direction
speed
KPH
gust
KPH
rain 1hr
cm
rain 24hr
cm
rain mn
cm
humidity
%
barometer
mb
20260504050519 8 0.0 0.0 0.00 0.03 0.00 59 1012.5
20260504045520 8 0.0 0.0 0.00 0.03 0.00 60 1012.5
20260504044519 8 0.0 0.0 0.00 0.03 0.00 58 1012.5
20260504043519 8 0.0 0.0 0.00 0.03 0.00 58 1012.5
20260504042519 8 0.0 0.0 0.00 0.03 0.00 60 1012.5
20260504041519 8 0.0 0.0 0.00 0.03 0.00 60 1012.5
20260504040519 7 0.0 0.0 0.00 0.03 0.00 62 1012.6
20260504035518 7 0.0 3.2 0.00 0.03 0.03 64 1012.6
20260504034521 6 293 1.6 4.8 0.00 0.03 0.03 65 1012.4
20260504033519 6 0.0 0.0 0.00 0.03 0.03 64 1012.3
20260504032519 6 0.0 0.0 0.00 0.03 0.03 65 1012.3
20260504031519 7 0.0 0.0 0.00 0.03 0.03 64 1012.3
20260504030519 7 0.0 0.0 0.00 0.03 0.03 64 1012.2
20260504025730 7 0.0 0.0 0.00 0.03 0.03 64 1012.2
20260504024518 7 0.0 0.0 0.00 0.03 0.03 64 1012.2
20260504023519 7 0.0 0.0 0.00 0.03 0.03 63 1012.2
20260504022519 8 0.0 0.0 0.00 0.03 0.03 62 1012.2
20260504021519 8 0.0 0.0 0.00 0.03 0.03 61 1012.1
20260504020519 8 0.0 0.0 0.00 0.03 0.03 59 1012.2
20260504015943 8 0.0 0.0 0.00 0.03 0.03 56 1012.2
20260504014519 9 0.0 0.0 0.00 0.03 0.03 55 1012.2
20260504013945 10 0.0 0.0 0.00 0.03 0.03 53 1012.2
20260504012519 10 0.0 0.0 0.00 0.03 0.03 53 1012.1
20260504011519 10 0.0 0.0 0.00 0.03 0.03 51 1012.0
20260504010519 10 0.0 0.0 0.00 0.03 0.03 52 1011.9
20260504005519 11 0.0 0.0 0.00 0.03 0.03 47 1011.8
20260504004519 11 0.0 0.0 0.00 0.03 0.03 47 1011.8
20260504003519 11 0.0 0.0 0.00 0.03 0.03 46 1011.8
20260504002519 12 0.0 0.0 0.00 0.03 0.03 45 1011.6
20260504001730 12 0.0 0.0 0.00 0.03 0.03 44 1011.6
20260504000518 13 0.0 1.6 0.00 0.03 0.03 42 1011.5
20260503235519 13 0.0 3.2 0.00 0.03 0.03 40 1011.5
20260503234519 14 293 4.8 9.7 0.00 0.03 0.03 38 1011.3
20260503233728 15 293 6.4 14.5 0.00 0.03 0.03 38 1011.2
20260503232519 15 293 3.2 8.0 0.00 0.03 0.03 37 1011.2
20260503231519 15 248 4.8 12.9 0.00 0.03 0.03 36 1011.1
20260503230519 15 270 8.0 19.3 0.00 0.03 0.03 35 1011.1
20260503225519 15 338 4.8 12.9 0.00 0.03 0.03 36 1011.1
20260503224733 15 315 8.0 14.5 0.00 0.03 0.03 35 1011.0
20260503223519 15 270 8.0 17.7 0.00 0.03 0.03 35 1011.1
20260503222730 15 293 8.0 17.7 0.00 0.03 0.03 34 1011.1
20260503221519 15 270 9.7 22.5 0.00 0.03 0.03 34 1011.1
20260503220519 15 293 11.3 24.1 0.00 0.03 0.03 34 1011.2
20260503215519 15 270 4.8 11.3 0.00 0.03 0.03 35 1011.2
20260503214519 15 270 8.0 17.7 0.00 0.03 0.03 35 1011.1
20260503213519 16 270 11.3 20.9 0.00 0.03 0.03 34 1011.0
20260503212519 15 315 9.7 19.3 0.00 0.03 0.03 35 1011.0
20260503211519 16 293 9.7 20.9 0.00 0.03 0.03 35 1011.0
20260503210519 15 315 8.0 20.9 0.00 0.03 0.03 34 1011.1
20260503205519 15 293 12.9 35.4 0.00 0.03 0.03 36 1011.2
20260503204519 15 315 9.7 30.6 0.00 0.03 0.03 37 1011.1
20260503203519 15 270 6.4 19.3 0.00 0.03 0.03 36 1011.1
20260503202519 15 293 6.4 16.1 0.00 0.03 0.03 38 1011.2
20260503201732 15 315 9.7 20.9 0.00 0.03 0.03 37 1011.3
20260503200520 15 315 14.5 32.2 0.00 0.03 0.03 36 1011.5
20260503195519 15 293 12.9 32.2 0.00 0.03 0.03 38 1011.5
20260503194519 15 293 11.3 24.1 0.00 0.03 0.03 36 1011.4
20260503193519 15 315 11.3 33.8 0.00 0.03 0.03 36 1011.7
20260503192520 15 270 8.0 25.7 0.03 0.03 0.03 35 1011.9
20260503191519 14 293 12.9 32.2 0.03 0.03 0.03 37 1011.9
20260503190519 14 270 12.9 20.9 0.03 0.03 0.03 36 1012.1
20260503185519 13 293 12.9 27.4 0.03 0.03 0.03 38 1012.1
20260503184519 13 293 12.9 20.9 0.03 0.03 0.03 38 1012.3
20260503183520 13 315 14.5 35.4 0.03 0.03 0.03 36 1012.5
20260503182519 13 293 9.7 19.3 0.00 0.00 0.00 37 1012.4
20260503181519 13 293 9.7 29.0 0.00 0.00 0.00 38 1012.4
20260503180519 13 293 9.7 16.1 0.00 0.00 0.00 37 1012.3
20260503175519 13 315 11.3 27.4 0.00 0.00 0.00 36 1012.4
20260503174519 13 293 11.3 24.1 0.00 0.00 0.00 39 1012.5
20260503173519 13 293 4.8 14.5 0.00 0.00 0.00 44 1012.4
20260503172520 12 315 11.3 27.4 0.00 0.00 0.00 39 1012.8
20260503171519 12 270 11.3 24.1 0.00 0.00 0.00 39 1012.8
20260503170519 12 315 11.3 25.7 0.00 0.00 0.00 38 1012.9
20260503150519 10 293 14.5 35.4 0.00 0.03 0.00 43 1014.1
20260503130519 7 293 6.4 11.3 0.00 0.03 0.00 52 1014.2
20260503110519 3 0.0 3.2 0.00 0.03 0.00 63 1013.5
20260503081520 5 315 6.4 16.1 0.00 0.03 0.00 63 1012.0
20260503080520 5 315 6.4 11.3 0.00 0.03 0.00 63 1012.0
20260503072520 6 315 3.2 9.7 0.00 0.03 0.00 65 1011.6
20260503071730 6 315 4.8 8.0 0.00 0.03 0.00 64 1011.5
20260503070520 6 315 4.8 9.7 0.00 0.03 0.00 65 1011.4
20260503054520 5 0.0 0.0 0.00 0.03 0.00 58 1011.6